Hourly Data Report for July 17, 2021

WIARTON A
ONTARIO
Current Station Operator: NAVCAN

44°44'39.000" N
81°06'31.000" W
221.90 m
6119499
71633
YVV

Download Data

Hourly Data (July 2021)
Hourly Data Report for July 17, 2021
TIME
LST
Temp Definition
°C
Dew Point Definition
°C
Rel Hum Definition
%
Precip. Amount Definition
mm

Wind Dir Definition
10's deg

Wind Spd Definition
km/h
Visibility Definition
km
Stn Press Definition
kPa
Hmdx Definition


Wind Chill Definition


Weather Definition


00:00 15.1 13.5 90   36 1 24.1 99.22     LegendNANA
01:00 15.6 13.4 86   34 5 24.1 99.22     Cloudy
02:00 15.5 13.9 90   34 4 24.1 99.19     LegendNANA
03:00 15.7 13.3 85   0 1 24.1 99.22     LegendNANA
04:00 15.0 13.3 90   9 5 24.1 99.24     Cloudy
05:00 14.8 14.3 97   10 4 24.1 99.26     LegendNANA
06:00 15.5 14.9 96   2 3 24.1 99.28     LegendNANA
07:00 16.8 16.1 95   36 3 24.1 99.31     Cloudy
08:00 19.0 16.8 87   7 7 24.1 99.32     LegendNANA
09:00 20.2 16.4 78   4 7 24.1 99.34 25   LegendNANA
10:00 20.7 16.9 79   3 6 24.1 99.36 26   Mostly Cloudy
11:00 21.2 17.5 79   4 8 24.1 99.39 27   LegendNANA
12:00 22.9 16.5 67   4 10 24.1 99.38 28   LegendNANA
13:00 22.8 17.4 71   2 8 24.1 99.38 28   Mainly Clear
14:00 24.2 17.7 67   36 5 24.1 99.35 30   LegendNANA
15:00 24.3 16.5 61   2 8 24.1 99.33 29   LegendNANA
16:00 24.7 16.4 59   4 9 24.1 99.32 30   Mainly Clear
17:00 24.5 14.5 53   5 10 24.1 99.31 28   LegendNANA
18:00 22.9 16.8 68   29 3 24.1 99.30 28   LegendNANA
19:00 21.6 16.2 71   36 1 24.1 99.33 26   Mainly Clear
20:00 21.0 15.4 70   29 3 24.1 99.35 25   LegendNANA
21:00 19.8 15.4 75   28 5 24.1 99.38     LegendNANA
22:00 18.5 14.9 80   36 3 24.1 99.39     Mainly Clear
23:00 18.8 14.7 77   36 3 24.1 99.39     LegendNANA

Notes on Data Quality.

Legend

  • E = Estimated
  • M = Missing
  • NA = Not Available*
  • [empty] = Indicates an unobserved value
Date modified: